weather.gov     
National Weather Service

Regional Weather Roundup
NWS Homepage
This page is being discontinued on March 12, 2014.
The same data is available at this site. Please update your bookmarks.
Thank you, and we apologize for the inconvenience.
Please send an email to SR-SRH.Webmaster@noaa.gov with any concerns.


Current Version
Previous Version:    01  02  03  04  05  06  07  08  09  10  11  12  13  14  15  16  17  18  19  20  21  22  23  24  25  26  27  28  29  30  
   31  32  33  34  35  36  37  38  39  40  41  42  43  44  45  46  47  48  49  50  51  52  53  54  55  56  57  58  59  60  
[Printable]
763
NZUS01 KOTX 220200
RWROTX
EASTERN WASHINGTON/NORTHERN IDAHO ROUNDUP
NATIONAL WEATHER SERVICE, SPOKANE WA
700 PM PDT TUE OCT 21 2014

Note: "fair" indicated few or no clouds below 12,000 feet with no
significant weather and/or obstructions to visibility.

...NORTHEAST WASHINGTON AND NORTHERN IDAHO PANHANDLE...

CITY           SKY/WX    TMP DP  RH WIND       PRES   REMARKS
SPOKANE INTL   PTCLDY    52  42  69 S7        29.97R
SPOKANE DOWNTO PTCLDY    54  41  61 SW7       29.97R
COEUR D ALENE  MOCLDY    50  39  66 S6        29.97R
DEER PARK      CLEAR     49  42  77 S8        29.96R

...SOUTHEAST WASHINGTON AND SOUTHERN IDAHO PANHANDLE...

CITY           SKY/WX    TMP DP  RH WIND       PRES   REMARKS
WALLA WALLA    CLEAR     55  43  63 SE8       29.98S
PULLMAN/MOSCOW CLEAR     50  37  61 SW3       30.02R
LOWELL           N/A     49  47  93 CALM      30.07R

...COLUMBIA BASIN...

CITY           SKY/WX    TMP DP  RH WIND       PRES   REMARKS
EPHRATA        CLEAR     54  44  69 SW8       29.91R
MOSES LAKE     CLEAR     58  43  57 S7        29.93R
TRI CITIES     CLEAR     58  46  64 S6        29.96R
HERMISTON      CLEAR     55  42  61 S5        29.96R
PENDLETON      PTCLDY    57  40  52 SE5       29.97S

...EAST SLOPES CASCADES...

CITY           SKY/WX    TMP DP  RH WIND       PRES   REMARKS
THE DALLES     CLEAR     57  47  69 NW3       29.94F
YAKIMA         PTCLDY    57  42  57 S16G24    29.92S
ELLENSBURG     MOCLDY    52  44  74 CALM      29.91S
WENATCHEE      CLEAR     59  39  47 NW5       29.90R
OMAK           CLOUDY    57  43  59 S8        29.88R

...SOUTHERN BRITISH COLUMBIA...

CITY           SKY/WX    TMP DP  RH WIND       PRES   REMARKS

...WESTERN MONTANA...

CITY           SKY/WX    TMP DP  RH WIND       PRES   REMARKS
MISSOULA       MOCLDY    45  42  89 CALM      30.01R

...NEIGHBORING CITIES...

CITY           SKY/WX    TMP DP  RH WIND       PRES   REMARKS
SEATTLE        CLOUDY    59  47  64 S12       29.87F




U.S. Dept. of Commerce
NOAA National Weather Service
1325 East West Highway
Silver Spring, MD 20910
E-mail: w-nws.webmaster@noaa.gov
Page last modified: May 16, 2007
NATIONAL WEATHER SERVICE: for Safety, for Work, for Fun - FOR LIFE